Back to catalog

DELTA 1 DEB

AliveHEO
NORAD 5975·DEBRIS·🇺🇸 United States

Launched Mar 20, 1970 from Cape Canaveral Space Force Station

Loading…

Next Passes (next 24 hours)

TLE

FreshSource: Space-Track

Epoch: Sep 14, 2026, 02:49 UTC

1 05975U 70021C   26257.11784866  .00003586  00000-0  12845-2 0  9993
2 05975  25.3650 181.4775 6513145 101.3073 333.2966  3.27761682375832

Track DELTA 1 DEB in real time with AllMySat

Download on the App Store